TimeCDT,TemperatureF,Dew PointF,Humidity,Sea Level PressureIn,VisibilityMPH,Wind Direction,Wind SpeedMPH,Gust SpeedMPH,PrecipitationIn,Events,Conditions,WindDirDegrees,DateUTC
12:53 AM,64.9,57.9,78,30.08,10.0,NE,6.9,-,N/A,,Overcast,40,2012-10-09 05:53:00
1:53 AM,66.9,59.0,76,30.07,10.0,ENE,5.8,-,N/A,,Overcast,60,2012-10-09 06:53:00
3:53 AM,66.9,61.0,81,30.04,10.0,ENE,8.1,-,N/A,,Overcast,70,2012-10-09 08:53:00
4:53 AM,68.0,64.0,87,30.03,10.0,ENE,4.6,-,N/A,,Mostly Cloudy,70,2012-10-09 09:53:00
5:53 AM,69.1,64.9,87,30.03,10.0,ENE,3.5,-,N/A,,Overcast,70,2012-10-09 10:53:00
6:09 AM,68.0,64.4,88,30.02,10.0,NE,4.6,-,N/A,,Mostly Cloudy,50,2012-10-09 11:09:00
6:53 AM,70.0,66.0,87,30.03,10.0,Calm,Calm,-,N/A,,Overcast,0,2012-10-09 11:53:00
7:53 AM,73.9,68.0,82,30.04,10.0,SE,4.6,-,N/A,,Overcast,140,2012-10-09 12:53:00
8:53 AM,77.0,69.1,76,30.05,10.0,SSE,9.2,-,N/A,,Mostly Cloudy,150,2012-10-09 13:53:00
9:53 AM,80.1,69.1,69,30.06,10.0,SSE,11.5,17.3,N/A,,Partly Cloudy,150,2012-10-09 14:53:00
10:53 AM,82.0,70.0,67,30.06,10.0,SE,12.7,18.4,N/A,,Partly Cloudy,140,2012-10-09 15:53:00
11:53 AM,82.0,69.1,65,30.05,10.0,SSE,11.5,18.4,N/A,,Mostly Cloudy,150,2012-10-09 16:53:00
12:53 PM,82.9,69.1,63,30.03,10.0,SE,10.4,17.3,N/A,,Mostly Cloudy,140,2012-10-09 17:53:00
1:53 PM,84.0,69.1,61,30.01,10.0,SE,15.0,18.4,N/A,,Mostly Cloudy,140,2012-10-09 18:53:00
2:53 PM,82.9,69.1,63,29.98,10.0,SE,11.5,17.3,N/A,,Overcast,140,2012-10-09 19:53:00
3:53 PM,84.0,69.1,61,29.96,10.0,SE,13.8,19.6,N/A,,Clear,140,2012-10-09 20:53:00
4:53 PM,82.0,70.0,67,29.96,10.0,SE,13.8,19.6,N/A,,Clear,140,2012-10-09 21:53:00
5:53 PM,81.0,70.0,69,29.95,10.0,SE,11.5,-,N/A,,Partly Cloudy,140,2012-10-09 22:53:00
6:53 PM,78.1,69.1,74,29.96,10.0,SE,9.2,-,N/A,,Clear,140,2012-10-09 23:53:00
7:53 PM,78.1,70.0,76,29.96,10.0,SSE,10.4,-,N/A,,Clear,150,2012-10-10 00:53:00
8:53 PM,77.0,71.1,82,29.97,10.0,SE,9.2,-,N/A,,Clear,140,2012-10-10 01:53:00
9:53 PM,77.0,71.1,82,29.98,10.0,SSE,10.4,-,N/A,,Clear,150,2012-10-10 02:53:00
10:53 PM,77.0,72.0,84,29.99,10.0,SSE,8.1,-,N/A,,Clear,150,2012-10-10 03:53:00
11:53 PM,78.1,72.0,81,29.99,10.0,SSE,10.4,-,N/A,,Clear,160,2012-10-10 04:53:00